• Join FlightAware (Why Join?)
  • Login
  • US Flag 
11:14PM EST


 

Airport Tracker/Info


-or-


 

Live Flight TrackerFlight Track Log ✈ UCA3598 ✈ 10-Nov-2013 ✈ KIAD - KBGM

Flight Track Log - Related Links

Times and Time Zones

All times are in EST time to prevent confusion due to time zone crossing. See the UCA3598 flight status page for this flight to view local times or setup timezone preferences in your user account.

Time Position Orientation Groundspeed Altitude Reporting Facility
EST Latitude Longitude Course Direction KTS MPH feet Rate Location/Type
10:39PM 38.9667 -77.5000 North 134 154 2,000  Level Potomac TRACON
10:39PM 39.0000 -77.5167 339° North 157 181 3,400 1,533 Climbing Potomac TRACON
10:42PM 39.0814 -77.5142 North 157 181 6,600 1,484 Climbing Washington Center
10:43PM 39.1233 -77.5100 North 157 181 8,000 1,438 Climbing Washington Center
10:44PM 39.1226 -77.3842 North  Level Estimated
10:44PM 39.1692 -77.5031 North 157 181 9,500  Level Washington Center
10:45PM 39.2150 -77.4989 North 157 181 11,100 1,240 Climbing Washington Center
10:46PM 39.2611 -77.4947 North 157 181 12,000 439 Climbing Washington Center
10:47PM 39.3217 -77.4911 North 179 206 12,000 353 Level Washington Center
10:48PM 39.3822 -77.4819 North 204 235 12,700 504 Climbing Washington Center
10:49PM 39.4469 -77.4756 North 221 254 13,000 149 Climbing Washington Center
10:50PM 39.5158 -77.4692 North 231 266 13,000 407 Level Washington Center
10:51PM 39.5825 -77.4628 North 236 272 13,800 1,182 Climbing Washington Center
10:52PM 39.6572 -77.4536 North 205 236 15,700 1,338 Climbing New York Center
10:53PM 39.7181 -77.4483 North 194 223 16,900 1,100 Climbing New York Center
10:54PM 39.7653 -77.4233 22° Northeast 204 235 17,900 893 Climbing New York Center
10:55PM 39.8256 -77.3911 22° Northeast 204 235 18,700 550 Climbing New York Center
10:56PM 39.8792 -77.3636 21° North 216 249 19,000 151 Climbing New York Center
10:57PM 39.9522 -77.3244 22° Northeast 244 281 19,000  Level New York Center
10:58PM 40.0122 -77.2950 21° North 258 297 19,000  Level New York Center
10:59PM 40.0897 -77.2533 22° Northeast 258 297 19,000  Level New York Center
11:00PM 40.1517 -77.2239 20° North 258 297 19,000  Level New York Center
11:01PM 40.2269 -77.1817 23° Northeast 258 297 19,000  Level New York Center
11:02PM 40.2869 -77.1519 21° North 258 297 19,000  Level New York Center
11:03PM 40.3600 -77.1150 21° North 258 297 19,000  Level New York Center
11:04PM 40.4200 -77.0797 24° Northeast 258 297 19,000  Level New York Center
11:05PM 40.4950 -77.0428 21° North 258 297 19,000 -150 Level New York Center
11:06PM 40.5614 -77.0081 22° Northeast 258 297 18,700 -500 Descending New York Center
11:07PM 40.6303 -76.9706 22° Northeast 260 299 18,000 -600 Descending New York Center
11:08PM 40.6986 -76.9356 21° North 260 299 17,500 -496 Descending New York Center
11:09PM 40.7631 -76.9003 23° Northeast 255 293 17,000 -250 Descending New York Center
11:10PM 40.8272 -76.8675 21° North 250 288 17,000 50 Level New York Center
11:11PM 40.8936 -76.8322 22° Northeast 250 288 17,100 49 Climbing New York Center
11:12PM 40.9536 -76.7992 23° Northeast 239 275 17,100  Level New York Center
11:13PM 41.0181 -76.7636 23° Northeast 239 275 17,100  Level New York Center
11:14PM 41.0803 -76.7306 22° Northeast 239 275 17,100  Level New York Center
11:15PM 41.1464 -76.6950 22° Northeast 239 275 17,100  Level New York Center
11:16PM 41.2108 -76.6594 23° Northeast 239 275 17,100  Level New York Center
11:17PM 41.2728 -76.6261 22° Northeast 239 275 17,100  Level New York Center
11:18PM 41.3372 -76.5903 23° Northeast 239 275 17,100  Level New York Center
11:19PM 41.3928 -76.5592 23° Northeast 239 275 17,100  Level New York Center
11:20PM 41.4569 -76.5231 23° Northeast 239 275 17,100 -50 Level New York Center
11:21PM 41.5233 -76.4872 22° Northeast 239 275 17,000 -650 Descending New York Center
11:22PM 41.5917 -76.4542 20° North 239 275 15,800 -1,200 Descending New York Center
11:23PM 41.6558 -76.4153 24° Northeast 247 284 14,600 -1,350 Descending New York Center
11:24PM 41.7136 -76.3867 20° North 247 284 13,100 -1,513 Descending New York Center
11:25PM 41.7736 -76.3500 24° Northeast 241 277 11,600 -1,574 Descending New York Center
11:26PM 41.8397 -76.3139 22° Northeast 236 272 9,900 -1,279 Descending New York Center
11:27PM 41.9017 -76.2800 22° Northeast 236 272 9,000 -496 Descending New York Center
11:28PM 41.9553 -76.2511 22° Northeast 220 253 8,900 -900 Descending New York Center
11:29PM 42.0044 -76.2217 24° Northeast 214 246 7,200 -1,846 Descending New York Center
11:30PM 42.0247 -76.1422 71° East 208 239 5,300 -1,623 Descending New York Center
11:31PM 42.0469 -76.0631 69° East 202 232 3,900 -694 Descending New York Center
11:32PM 42.0742 -76.0094 56° Northeast 197 227 3,900 -102 Level New York Center
11:33PM 42.1033 -75.9642 49° Northeast 179 206 3,700 -400 Descending New York Center
11:34PM 42.1319 -75.9300 42° Northeast 148 170 3,100 -550 Descending New York Center
11:35PM 42.1608 -75.9381 348° North 101 116 2,600 -500 Descending New York Center
11:36PM 42.1828 -75.9592 325° Northwest 90 104 2,100 -353 Descending New York Center
11:37PM 42.2117 -75.9644 352° North 90 104 1,900 -200 Descending New York Center